Chillicothe, MO

4:31 AM CST on December 13, 2019 (GMT -0600)
Chillicothe

Weather History for KCDJ - October, 2019

Change the Weather History Date:

Monday, October 14, 2019

  Actual Average (WUND) Record (WUND)
Temperature  
Mean Temperature 51 °F -  
Max Temperature 69 °F - - (-1)
Min Temperature 34 °F - - (-1)
Degree Days  
Heating Degree Days 14    
Growing Degree Days 1 (Base 50)    
Moisture  
Dew Point 42 °F    
Average Humidity 72    
Maximum Humidity 100    
Minimum Humidity 43    
Precipitation  
Precipitation 0.00 in - - ()
Sea Level Pressure  
Sea Level Pressure 30.02 in    
Wind  
Wind Speed 3 mph (SE)    
Max Wind Speed 9 mph    
Max Gust Speed 18 mph    
Averages and records for this station are not official NWS values.
T = Trace of Precipitation, MM = Missing Value Source: NWS Daily Summary

Daily Weather History Graph

Daily Weather History Graph

Search for Another Location

Airport or City:

Astronomy

Oct. 14, 2019 Rise Set
Actual Time 7:23 AM CDT 6:36 PM CDT
Civil Twilight 6:56 AM CDT 7:03 PM CDT
Nautical Twilight 6:24 AM CDT 7:35 PM CDT
Astronomical Twilight 5:53 AM CDT 8:06 PM CDT
Moon 7:27 PM CDT (10/14) 7:55 AM CDT (10/14)
Length of Visible Light 12h 07m
Length of Day
11h 13m
Full, 99% of the Moon is Illuminated
Oct 14
Full
Oct 21
Last Quarter
Oct 27
New
Nov 4
First Quarter
Nov 12
Full

Hourly Weather History & Observations

Time (CDT) Temp. Windchill Dew Point Humidity Pressure Visibility Wind Dir Wind Speed Gust Speed Precip Events Conditions
12:52 AM 37.0 °F - 37.0 °F 100% 30.05 in - Calm Calm - N/A   Unknown
2:52 AM 39.9 °F 37.8 °F 35.1 °F 83% 30.06 in - North 3.5 mph - N/A   Unknown
3:52 AM 37.0 °F - 35.1 °F 93% 30.07 in - Calm Calm - N/A   Unknown
4:52 AM 35.1 °F - 34.0 °F 96% 30.09 in - Calm Calm - N/A   Unknown
5:52 AM 34.0 °F - 34.0 °F 100% 30.09 in - Calm Calm - N/A   Unknown
6:52 AM 34.0 °F - 33.1 °F 96% 30.10 in - Calm Calm - N/A   Unknown
7:52 AM 35.1 °F 32.2 °F 34.0 °F 96% 30.11 in - North 3.5 mph - N/A   Unknown
8:52 AM 43.0 °F 40.3 °F 37.0 °F 80% 30.12 in - ESE 4.6 mph - N/A   Unknown
9:52 AM 48.0 °F - 39.0 °F 71% 30.13 in - SE 5.8 mph - N/A   Unknown
10:52 AM 53.1 °F - 41.0 °F 64% 30.11 in - ESE 5.8 mph - N/A   Unknown
11:52 AM 57.0 °F - 42.1 °F 57% 30.09 in - SE 5.8 mph - N/A   Unknown
12:52 PM 62.1 °F - 43.0 °F 50% 30.06 in - SE 5.8 mph - N/A   Unknown
1:52 PM 64.9 °F - 43.0 °F 45% 30.01 in - SE 5.8 mph - N/A   Unknown
3:52 PM 68.0 °F - 45.0 °F 43% 29.96 in - SSE 8.1 mph 18.4 mph N/A   Unknown
4:52 PM 68.0 °F - 46.0 °F 45% 29.95 in - SE 9.2 mph 18.4 mph N/A   Unknown
5:52 PM 66.9 °F - 46.9 °F 49% 29.94 in - Variable 5.8 mph - N/A   Unknown
6:52 PM 63.0 °F - 46.9 °F 56% 29.93 in - SE 3.5 mph - N/A   Unknown
7:52 PM 61.0 °F - 48.0 °F 62% 29.92 in - SE 5.8 mph - N/A   Unknown
8:52 PM 60.1 °F - 48.0 °F 64% 29.91 in - SE 5.8 mph - N/A   Unknown
9:52 PM 59.0 °F - 48.9 °F 69% 29.90 in - SE 6.9 mph - N/A   Unknown
10:52 PM 57.9 °F - 48.9 °F 72% 29.91 in - South 3.5 mph - N/A   Unknown
11:52 PM 53.1 °F - 48.9 °F 86% 29.91 in - Calm Calm - N/A   Unknown